Weather History for Graham, TX

Change the Weather History Date:

Saturday, October 26, 2013

  Actual Average (KMWL) Record (KMWL)
Temperature  
Mean Temperature 68 °F -  
Max Temperature 80 °F 72 °F 89 °F (2014)
Min Temperature 56 °F 52 °F 34 °F (2007)
Cooling Degree Days 2    
Growing Degree Days 18 (Base 50)    
Moisture  
Dew Point 57 °F    
Average Humidity 75    
Maximum Humidity 96    
Minimum Humidity 49    
Precipitation  
Precipitation 0.00 in - - ()
Sea Level Pressure  
Sea Level Pressure 30.11 in    
Wind  
Wind Speed 7 mph (SSE)    
Max Wind Speed 15 mph    
Max Gust Speed 24 mph    
Visibility 10 miles    
Events Rain    
Averages and records for this station are not official NWS values.
T = Trace of Precipitation, MM = Missing Value Source: NWS Daily Summary

Daily Weather History Graph

Daily Weather History Graph

Search for Another Location

Airport:

Trip Planner

Search our weather history database for the weather conditions in past years. The results will help you decide how hot, cold, wet, or windy it might be!

Date:

Astronomy

Oct. 26, 2013 Rise Set
Actual Time 7:47 AM CDT 6:48 PM CDT
Civil Twilight 7:22 AM CDT 7:13 PM CDT
Nautical Twilight 6:53 AM CDT 7:42 PM CDT
Astronomical Twilight 6:24 AM CDT 8:11 PM CDT
Moon 12:14 AM CDT (10/26) 2:02 PM CDT (10/26)
Length of Visible Light 11h 51m
Length of Day
11h 00m
Waning Gibbous, 53% of the Moon is Illuminated
Oct 26
Waning Gibbous
Oct 26
Last Quarter
Nov 3
New
Nov 9
First Quarter
Nov 17
Full

Hourly Weather History & Observations

Time (CDT) Temp. Dew Point Humidity Pressure Visibility Wind Dir Wind Speed Gust Speed Precip Events Conditions
12:15 AM 59.5 °F 50.2 °F 71% 30.21 in 10.0 mi SE 8.1 mph - N/A   Clear
12:35 AM 59.0 °F 50.4 °F 73% 30.19 in 10.0 mi SE 9.2 mph - N/A   Scattered Clouds
12:55 AM 58.1 °F 50.2 °F 75% 30.18 in 10.0 mi SE 6.9 mph - N/A   Scattered Clouds
1:15 AM 58.1 °F 50.4 °F 75% 30.18 in 10.0 mi SE 6.9 mph - N/A   Clear
1:35 AM 58.1 °F 50.9 °F 77% 30.18 in 10.0 mi SE 5.8 mph - N/A Rain Light Rain
1:55 AM 57.9 °F 50.9 °F 77% 30.17 in 10.0 mi SE 5.8 mph - N/A   Scattered Clouds
2:15 AM 57.4 °F 50.9 °F 79% 30.16 in 10.0 mi SE 3.5 mph - N/A   Clear
2:35 AM 57.2 °F 50.9 °F 79% 30.16 in 10.0 mi SE 5.8 mph - N/A   Clear
2:55 AM 57.4 °F 51.1 °F 79% 30.15 in 10.0 mi SE 5.8 mph - N/A   Clear
3:15 AM 57.4 °F 51.4 °F 81% 30.15 in 10.0 mi SE 6.9 mph - N/A   Clear
3:35 AM 57.9 °F 51.8 °F 80% 30.15 in 10.0 mi SE 4.6 mph - N/A   Clear
3:55 AM 58.1 °F 52.0 °F 80% 30.16 in 10.0 mi Calm Calm - N/A   Clear
4:15 AM 57.6 °F 52.0 °F 82% 30.16 in 10.0 mi Calm Calm - N/A   Scattered Clouds
4:35 AM 57.2 °F 52.0 °F 83% 30.16 in 10.0 mi Calm Calm - N/A   Clear
4:55 AM 56.3 °F 51.8 °F 85% 30.16 in 10.0 mi Calm Calm - N/A   Clear
5:15 AM 56.5 °F 52.0 °F 85% 30.16 in 10.0 mi Calm Calm - N/A   Scattered Clouds
5:35 AM 56.7 °F 52.2 °F 85% 30.16 in 10.0 mi Calm Calm - N/A   Mostly Cloudy
5:55 AM 56.7 °F 52.3 °F 85% 30.17 in 10.0 mi Calm Calm - N/A   Mostly Cloudy
6:15 AM 56.8 °F 52.7 °F 86% 30.17 in 10.0 mi Calm Calm - N/A   Overcast
6:35 AM 57.2 °F 53.2 °F 87% 30.16 in 10.0 mi SE 4.6 mph - N/A   Overcast
6:55 AM 57.4 °F 53.6 °F 87% 30.16 in 10.0 mi SE 4.6 mph - N/A   Mostly Cloudy
7:15 AM 58.1 °F 53.8 °F 86% 30.16 in 10.0 mi SE 4.6 mph - N/A   Overcast
7:35 AM 57.7 °F 53.8 °F 87% 30.16 in 10.0 mi SE 4.6 mph - N/A   Mostly Cloudy
7:55 AM 57.7 °F 54.0 °F 87% 30.15 in 10.0 mi SE 4.6 mph - N/A   Scattered Clouds
8:15 AM 58.1 °F 54.1 °F 87% 30.15 in 10.0 mi SE 5.8 mph - N/A   Mostly Cloudy
8:35 AM 59.0 °F 54.5 °F 85% 30.15 in 10.0 mi SSE 5.8 mph - N/A   Mostly Cloudy
8:55 AM 59.7 °F 54.7 °F 83% 30.15 in 10.0 mi SE 5.8 mph - N/A   Scattered Clouds
9:15 AM 61.7 °F 55.9 °F 81% 30.16 in 10.0 mi SSE 8.1 mph - N/A   Clear
9:35 AM 63.3 °F 57.0 °F 80% 30.16 in 10.0 mi SSE 6.9 mph - N/A   Clear
9:55 AM 65.8 °F 59.0 °F 79% 30.16 in 10.0 mi SSE 12.7 mph 17.3 mph N/A   Scattered Clouds
10:15 AM 68.9 °F 59.9 °F 73% 30.16 in 10.0 mi South 12.7 mph 18.4 mph N/A   Scattered Clouds
10:35 AM 69.3 °F 59.9 °F 72% 30.16 in 10.0 mi South 10.4 mph - N/A   Scattered Clouds
10:55 AM 70.9 °F 60.3 °F 69% 30.16 in 10.0 mi South 12.7 mph 18.4 mph N/A   Mostly Cloudy
11:15 AM 72.5 °F 60.6 °F 66% 30.15 in 10.0 mi South 9.2 mph 23.0 mph N/A   Overcast
11:35 AM 71.1 °F 60.3 °F 69% 30.15 in 10.0 mi SSW 12.7 mph 19.6 mph N/A   Mostly Cloudy
11:55 AM 71.4 °F 60.6 °F 69% 30.15 in 10.0 mi South 9.2 mph 16.1 mph N/A   Mostly Cloudy
12:15 PM 71.8 °F 60.3 °F 67% 30.14 in 10.0 mi South 13.8 mph 20.7 mph N/A   Mostly Cloudy
12:35 PM 73.2 °F 60.6 °F 65% 30.13 in 10.0 mi South 15.0 mph 24.2 mph N/A   Mostly Cloudy
12:55 PM 74.8 °F 60.6 °F 61% 30.12 in 10.0 mi South 13.8 mph 20.7 mph N/A   Mostly Cloudy
1:15 PM 74.7 °F 60.6 °F 61% 30.11 in 10.0 mi SSW 13.8 mph 19.6 mph N/A   Overcast
1:35 PM 74.8 °F 60.4 °F 61% 30.10 in 10.0 mi South 13.8 mph 19.6 mph N/A   Overcast
1:55 PM 75.6 °F 60.1 °F 59% 30.09 in 10.0 mi SSW 11.5 mph 20.7 mph N/A   Mostly Cloudy
2:15 PM 75.7 °F 60.3 °F 59% 30.08 in 10.0 mi South 10.4 mph 18.4 mph N/A   Mostly Cloudy
2:35 PM 76.6 °F 60.3 °F 57% 30.06 in 10.0 mi South 9.2 mph 16.1 mph N/A   Mostly Cloudy
2:55 PM 77.9 °F 60.1 °F 54% 30.05 in 10.0 mi SSW 12.7 mph 19.6 mph N/A   Mostly Cloudy
3:15 PM 79.5 °F 59.0 °F 49% 30.04 in 10.0 mi SW 11.5 mph 19.6 mph N/A   Scattered Clouds
3:35 PM 79.2 °F 58.8 °F 50% 30.03 in 10.0 mi South 10.4 mph 20.7 mph N/A   Scattered Clouds
3:55 PM 79.3 °F 58.8 °F 49% 30.02 in 10.0 mi South 10.4 mph 18.4 mph N/A   Scattered Clouds
4:15 PM 79.9 °F 59.0 °F 49% 30.01 in 10.0 mi SW 9.2 mph 17.3 mph N/A   Scattered Clouds
4:35 PM 78.6 °F 59.2 °F 51% 30.00 in 10.0 mi SSW 8.1 mph - N/A   Scattered Clouds
4:55 PM 76.5 °F 60.8 °F 58% 30.00 in 10.0 mi SSW 10.4 mph 17.3 mph N/A Rain Light Rain
5:15 PM 76.5 °F 59.4 °F 55% 30.00 in 10.0 mi SSW 8.1 mph - N/A   Mostly Cloudy
5:35 PM 76.1 °F 59.5 °F 56% 30.00 in 10.0 mi SW 4.6 mph - N/A   Mostly Cloudy
5:55 PM 77.0 °F 59.0 °F 54% 29.99 in 10.0 mi SSW 10.4 mph 16.1 mph N/A   Mostly Cloudy
6:15 PM 74.8 °F 60.6 °F 61% 29.99 in 10.0 mi West 8.1 mph 16.1 mph N/A   Overcast
6:35 PM 74.1 °F 60.4 °F 62% 30.00 in 10.0 mi SSW 6.9 mph - N/A   Mostly Cloudy
6:55 PM 73.4 °F 59.4 °F 61% 30.02 in 10.0 mi WNW 9.2 mph - N/A   Mostly Cloudy
7:15 PM 67.6 °F 56.8 °F 68% 30.04 in 10.0 mi NNE 6.9 mph 10.4 mph N/A   Mostly Cloudy
7:35 PM 66.4 °F 59.5 °F 79% 30.05 in 10.0 mi NNE 8.1 mph - N/A   Mostly Cloudy
7:55 PM 65.3 °F 59.9 °F 83% 30.05 in 10.0 mi NNE 5.8 mph - N/A   Scattered Clouds
8:15 PM 64.4 °F 59.2 °F 83% 30.07 in 10.0 mi NNE 5.8 mph - N/A   Clear
8:35 PM 63.7 °F 59.0 °F 85% 30.07 in 10.0 mi NNE 4.6 mph - N/A   Clear
8:55 PM 63.0 °F 58.8 °F 86% 30.08 in 10.0 mi ENE 3.5 mph - N/A   Scattered Clouds
9:15 PM 63.5 °F 58.6 °F 84% 30.09 in 10.0 mi East 3.5 mph - N/A   Mostly Cloudy
9:35 PM 62.8 °F 58.6 °F 86% 30.09 in 10.0 mi Calm Calm - N/A   Mostly Cloudy
9:55 PM 61.9 °F 58.5 °F 89% 30.09 in 10.0 mi Calm Calm - N/A   Scattered Clouds
10:15 PM 61.0 °F 58.3 °F 91% 30.09 in 10.0 mi Calm Calm - N/A   Clear
10:35 PM 59.9 °F 58.1 °F 94% 30.10 in 10.0 mi Calm Calm - N/A   Clear
10:55 PM 59.5 °F 57.7 °F 94% 30.11 in 10.0 mi Calm Calm - N/A   Clear
11:15 PM 58.5 °F 57.2 °F 96% 30.11 in 10.0 mi Calm Calm - N/A   Clear
11:35 PM 57.9 °F 56.5 °F 95% 30.11 in 10.0 mi NNW 6.9 mph - N/A   Clear
11:55 PM 58.1 °F 56.8 °F 96% 30.11 in 10.0 mi North 6.9 mph - N/A   Scattered Clouds